Location: Feydey
(46.3431°N, 7.0106°E)
Time: 07:09:41
(UTC+00:00)

deb Atmosphere 2 - Pass Details

Date: 30 January 2022
Orbit: 828 x 839 km, 98.6° (Epoch: 21 May)

Event Time Altitude Azimuth Distance (km) Brightness Sun altitude
Rises 05:16:09 0° 12° (NNE) 3,403 ? -17.6°
Reaches altitude 10° 05:18:31 10° 11° (N) 2,463 ? -17.2°
Maximum altitude 05:23:58 75° 287° (WNW) 868 ? -16.3°
Drops below altitude 10° 05:29:22 10° 203° (SSW) 2,437 ? -15.4°
Sets 05:31:42 0° 202° (SSW) 3,365 ? -15.0°
